Regional Weather Roundup
Issued by NWS Spokane, WA

Home | Current Version | Previous Version | Text Only | Print | Product List | Glossary On
Versions: 1 2 3 4 5 6 7 8 9 10 11 12 13 14 15 16 17 18 19 20 21 22 23 24 25 26 27 28 29 30 31 32 33 34 35 36 37 38 39 40 41 42 43 44 45 46 47 48 49 50
000
NZUS01 KOTX 011010
RWROTX
EASTERN WASHINGTON/NORTHERN IDAHO ROUNDUP
NATIONAL WEATHER SERVICE, SPOKANE WA
200 AM PST SUN FEB 01 2015

Note: "fair" indicated few or no clouds below 12,000 feet with no
significant weather and/or obstructions to visibility.

...NORTHEAST WASHINGTON AND NORTHERN IDAHO PANHANDLE...

CITY           SKY/WX    TMP DP  RH WIND       PRES   REMARKS
SPOKANE INTL   CLOUDY    29  28  96 NE5       30.23S WCI  24
SPOKANE DOWNTO CLOUDY    30  27  88 CALM      30.26S
COEUR D ALENE  MOCLDY    28  27  93 E7        30.24S WCI  21
DEER PARK      CLOUDY    29  27  92 N5        30.26R WCI  24
SANDPOINT      MOCLDY    32  30  93 NE6       30.26F WCI  26
BONNERS FERRY  CLOUDY    28  27  93 CALM      30.26S

...SOUTHEAST WASHINGTON AND SOUTHERN IDAHO PANHANDLE...

CITY           SKY/WX    TMP DP  RH WIND       PRES   REMARKS
WALLA WALLA    CLOUDY    35  32  88 S7        30.25S WCI  29
PULLMAN/MOSCOW MOCLDY    32  28  85 E15       30.21F WCI  22
LEWISTON       CLOUDY    33  30  88 SE3       30.26R
LOWELL           N/A     30  28  92 CALM      30.32F

...COLUMBIA BASIN...

CITY           SKY/WX    TMP DP  RH WIND       PRES   REMARKS
EPHRATA        CLOUDY    35  31  85 N7        30.28S WCI  29
MOSES LAKE     CLOUDY    35  32  88 N9        30.30R WCI  28
TRI CITIES     CLOUDY    37  34  89 NW8       30.30S
HERMISTON      CLOUDY    37  32  82 CALM      30.28F
PENDLETON      CLOUDY    34  31  88 NE6       30.23F WCI  29

...EAST SLOPES CASCADES...

CITY           SKY/WX    TMP DP  RH WIND       PRES   REMARKS
THE DALLES     CLOUDY    38  33  82 CALM      30.30F
YAKIMA         CLOUDY    36  33  89 CALM      30.28F FOG
ELLENSBURG     CLOUDY    35  31  85 SE3       30.25F
WENATCHEE      CLOUDY    36  32  85 SE3       30.28F
OMAK           LGT SNOW  32  31  96 S8        30.30S FOG     WCI  25

...SOUTHERN BRITISH COLUMBIA...

CITY           SKY/WX    TMP DP  RH WIND       PRES   REMARKS
PENTICTON      MOCLDY    36  30  80 S12       30.26F
CRANBROOK      CLOUDY    27  23  86 N3        30.24S

...WESTERN MONTANA...

CITY           SKY/WX    TMP DP  RH WIND       PRES   REMARKS
MISSOULA       CLEAR     26  19  74 E9        30.25S WCI  17

...NEIGHBORING CITIES...

CITY           SKY/WX    TMP DP  RH WIND       PRES   REMARKS
SEATTLE        CLOUDY    41  39  93 CALM      30.08S
CALGARY        PTCLDY     1  -2  85 SW7       30.18F WCI -11



USA.gov is the U.S. government's official web portal to all federal, state and local government web resources and services.